| time (UTC) | temp C | wind direction | speed KPH | gust KPH | rain 1hr cm | rain 24hr cm | rain mn cm | humidity % | barometer mb |
| 20260901075845 | 22 | 134 | 0.0 | 0.0 | 0.00 | 0.00 | 0.00 | 88 | |
| 20260901075341 | 22 | 134 | 0.0 | 1.6 | 0.00 | 0.00 | 0.00 | 88 | |
| 20260901074830 | 22 | 134 | 0.0 | 0.0 | 0.00 | 0.00 | 0.00 | 88 | |
| 20260901074325 | 22 | 134 | 0.0 | 4.8 | 0.00 | 0.00 | 0.00 | 88 | |
| 20260901073820 | 22 | 135 | 0.0 | 0.0 | 0.00 | 0.00 | 0.00 | 88 | |
| 20260901073316 | 22 | 274 | 1.6 | 1.6 | 0.00 | 0.00 | 0.00 | 88 | |
| 20260901072812 | 22 | 275 | 1.6 | 1.6 | 0.00 | 0.00 | 0.00 | 88 | |
| 20260901072311 | 22 | 275 | 0.0 | 0.0 | 0.00 | 0.00 | 0.00 | 88 | |
| 20260901071807 | 22 | 275 | 1.6 | 1.6 | 0.00 | 0.00 | 0.00 | 89 | |
| 20260901071305 | 22 | 275 | 0.0 | 0.0 | 0.00 | 0.00 | 0.00 | 90 | |
| 20260901070804 | 22 | 275 | 0.0 | 1.6 | 0.00 | 0.00 | 0.00 | 89 | |
| 20260901070300 | 22 | 275 | 1.6 | 1.6 | 0.00 | 0.00 | 0.00 | 91 | |
| 20260901065759 | 22 | 275 | 0.0 | 0.0 | 0.00 | 0.00 | 0.00 | 91 | |
| 20260901065254 | 22 | 275 | 1.6 | 1.6 | 0.00 | 0.00 | 0.00 | 92 | |
| 20260901064750 | 22 | 275 | 0.0 | 0.0 | 0.00 | 0.00 | 0.00 | 92 | |
| 20260901064246 | 22 | 275 | 0.0 | 1.6 | 0.00 | 0.00 | 0.00 | 92 | |
| 20260901063744 | 22 | 275 | 0.0 | 0.0 | 0.00 | 0.00 | 0.00 | 93 | |
| 20260901063239 | 22 | 275 | 0.0 | 0.0 | 0.00 | 0.00 | 0.00 | 93 | |
| 20260901062736 | 22 | 275 | 0.0 | 0.0 | 0.00 | 0.00 | 0.00 | 93 | |
| 20260901062231 | 22 | 275 | 0.0 | 1.6 | 0.00 | 0.00 | 0.00 | 93 | |
| 20260901061727 | 22 | 276 | 0.0 | 1.6 | 0.00 | 0.00 | 0.00 | 93 | |
| 20260901061226 | 22 | 276 | 0.0 | 0.0 | 0.00 | 0.00 | 0.00 | 93 | |
| 20260901060721 | 22 | 276 | 0.0 | 0.0 | 0.00 | 0.00 | 0.00 | 93 | |
| 20260901060217 | 22 | 276 | 0.0 | 0.0 | 0.00 | 0.00 | 0.00 | 93 | |
| 20260901055712 | 22 | 276 | 0.0 | 0.0 | 0.00 | 0.00 | 0.00 | 93 | |
| 20260901055209 | 22 | 276 | 0.0 | 0.0 | 0.00 | 0.00 | 0.00 | 93 | |
| 20260901054706 | 21 | 276 | 0.0 | 0.0 | 0.00 | 0.00 | 0.00 | 94 | |
| 20260901054202 | 21 | 276 | 0.0 | 1.6 | 0.00 | 0.00 | 0.00 | 94 | |
| 20260901053657 | 21 | 275 | 0.0 | 0.0 | 0.00 | 0.00 | 0.00 | 94 | |
| 20260901053153 | 21 | 276 | 0.0 | 0.0 | 0.00 | 0.00 | 0.00 | 95 | |
| 20260901052648 | 21 | 276 | 0.0 | 0.0 | 0.00 | 0.00 | 0.00 | 95 | |
| 20260901052143 | 21 | 276 | 1.6 | 1.6 | 0.00 | 0.00 | 0.00 | 96 | |
| 20260901051642 | 21 | 276 | 0.0 | 0.0 | 0.00 | 0.00 | 0.00 | 96 | |
| 20260901051142 | 21 | 276 | 0.0 | 0.0 | 0.00 | 0.00 | 0.00 | 96 | |
| 20260901050637 | 21 | 276 | 0.0 | 0.0 | 0.00 | 0.00 | 0.00 | 97 | |
| 20260901050132 | 21 | 276 | 0.0 | 0.0 | 0.00 | 0.00 | 0.00 | 96 | |
| 20260901045627 | 21 | 276 | 0.0 | 0.0 | 0.00 | 0.00 | 0.00 | 97 | |
| 20260901045122 | 21 | 276 | 0.0 | 0.0 | 0.00 | 0.00 | 0.00 | 96 | |
| 20260901044618 | 21 | 275 | 0.0 | 0.0 | 0.00 | 0.00 | 0.00 | 96 | |
| 20260901044114 | 21 | 275 | 0.0 | 0.0 | 0.00 | 0.00 | 0.00 | 96 | |
| 20260901043609 | 21 | 275 | 0.0 | 0.0 | 0.00 | 0.00 | 0.00 | 96 | |
| 20260901043104 | 21 | 275 | 1.6 | 0.0 | 0.00 | 0.00 | 0.00 | 96 | |
| 20260901042603 | 21 | 275 | 0.0 | 0.0 | 0.00 | 0.00 | 0.00 | 96 | |
| 20260901042059 | 21 | 276 | 1.6 | 1.6 | 0.00 | 0.00 | 0.00 | 96 | |
| 20260901041554 | 21 | 275 | 0.0 | 0.0 | 0.00 | 0.00 | 0.00 | 97 | |
| 20260901041049 | 21 | 276 | 0.0 | 0.0 | 0.00 | 0.00 | 0.00 | 96 | |
| 20260901040548 | 21 | 276 | 0.0 | 1.6 | 0.00 | 0.00 | 0.00 | 96 | |
| 20260901040043 | 21 | 276 | 0.0 | 0.0 | 0.00 | 0.00 | 0.00 | 96 | |
| 20260901035541 | 21 | 276 | 1.6 | 1.6 | 0.00 | 0.03 | 0.03 | 96 | |
| 20260901035039 | 21 | 276 | 1.6 | 1.6 | 0.00 | 0.03 | 0.03 | 96 | |
| 20260901034534 | 21 | 276 | 0.0 | 0.0 | 0.00 | 0.03 | 0.03 | 95 | |
| 20260901034029 | 21 | 276 | 0.0 | 0.0 | 0.00 | 0.03 | 0.03 | 95 | |
| 20260901033527 | 21 | 276 | 0.0 | 0.0 | 0.00 | 0.03 | 0.03 | 95 | |
| 20260901033027 | 21 | 276 | 0.0 | 0.0 | 0.00 | 0.03 | 0.03 | 95 | |
| 20260901032526 | 21 | 276 | 0.0 | 0.0 | 0.00 | 0.03 | 0.03 | 95 | |
| 20260901032021 | 21 | 276 | 0.0 | 0.0 | 0.00 | 0.03 | 0.03 | 94 | |
| 20260901031517 | 22 | 276 | 0.0 | 0.0 | 0.00 | 0.03 | 0.03 | 94 | |
| 20260901031012 | 22 | 276 | 0.0 | 0.0 | 0.00 | 0.03 | 0.03 | 94 | |
| 20260901030512 | 22 | 276 | 0.0 | 0.0 | 0.00 | 0.03 | 0.03 | 93 | |
| 20260901030007 | 22 | 276 | 0.0 | 0.0 | 0.00 | 0.03 | 0.03 | 93 | |
| 20260901025501 | 22 | 275 | 0.0 | 0.0 | 0.00 | 0.03 | 0.03 | 93 | |
| 20260901025001 | 22 | 276 | 0.0 | 0.0 | 0.00 | 0.03 | 0.03 | 93 | |
| 20260901024456 | 22 | 276 | 0.0 | 0.0 | 0.00 | 0.03 | 0.03 | 93 | |
| 20260901023954 | 22 | 275 | 0.0 | 0.0 | 0.00 | 0.03 | 0.03 | 93 | |
| 20260901023449 | 22 | 275 | 0.0 | 1.6 | 0.00 | 0.03 | 0.03 | 93 | |
| 20260901022943 | 22 | 28 | 1.6 | 1.6 | 0.00 | 0.03 | 0.03 | 92 | |
| 20260901022440 | 22 | 28 | 0.0 | 1.6 | 0.00 | 0.03 | 0.03 | 92 | |
| 20260901021934 | 22 | 29 | 0.0 | 0.0 | 0.00 | 0.03 | 0.03 | 92 | |
| 20260901021430 | 22 | 29 | 0.0 | 0.0 | 0.00 | 0.03 | 0.03 | 91 | |
| 20260901020925 | 22 | 28 | 0.0 | 0.0 | 0.00 | 0.03 | 0.03 | 92 | |
| 20260901020420 | 23 | 29 | 1.6 | 1.6 | 0.00 | 0.03 | 0.03 | 91 | |
| 20260901015919 | 23 | 29 | 0.0 | 0.0 | 0.00 | 0.03 | 0.03 | 90 | |
| 20260901015416 | 23 | 29 | 1.6 | 1.6 | 0.00 | 0.03 | 0.03 | 88 | |
| 20260901014915 | 23 | 29 | 0.0 | 0.0 | 0.00 | 0.03 | 0.03 | 86 | |
| 20260901014412 | 23 | 29 | 0.0 | 0.0 | 0.00 | 0.03 | 0.03 | 86 | |
| 20260901013907 | 23 | 28 | 0.0 | 1.6 | 0.00 | 0.03 | 0.03 | 86 | |
| 20260901013402 | 24 | 153 | 1.6 | 1.6 | 0.00 | 0.03 | 0.03 | 85 | |
| 20260901012858 | 24 | 154 | 1.6 | 1.6 | 0.00 | 0.03 | 0.03 | 82 | |
| 20260901012353 | 23 | 153 | 0.0 | 0.0 | 0.00 | 0.03 | 0.03 | 84 | |
| 20260901011848 | 23 | 153 | 0.0 | 4.8 | 0.00 | 0.03 | 0.03 | 84 | |
| 20260901011344 | 23 | 161 | 3.2 | 4.8 | 0.00 | 0.03 | 0.03 | 84 | |
| 20260901010843 | 24 | 239 | 0.0 | 0.0 | 0.00 | 0.03 | 0.03 | 82 | |
| 20260901010337 | 24 | 240 | 0.0 | 0.0 | 0.00 | 0.03 | 0.03 | 81 | |
| 20260901005836 | 24 | 240 | 1.6 | 1.6 | 0.00 | 0.03 | 0.03 | 81 | |
| 20260901005331 | 24 | 240 | 1.6 | 1.6 | 0.00 | 0.03 | 0.03 | 80 | |
| 20260901004826 | 25 | 240 | 0.0 | 0.0 | 0.00 | 0.03 | 0.03 | 81 | |
| 20260901004320 | 25 | 240 | 0.0 | 0.0 | 0.00 | 0.03 | 0.03 | 81 | |
| 20260901003814 | 25 | 240 | 0.0 | 0.0 | 0.00 | 0.03 | 0.03 | 79 | |
| 20260901003309 | 25 | 240 | 0.0 | 0.0 | 0.00 | 0.03 | 0.03 | 78 | |
| 20260901002803 | 25 | 240 | 0.0 | 0.0 | 0.00 | 0.03 | 0.03 | 78 | |
| 20260901002258 | 25 | 240 | 0.0 | 0.0 | 0.00 | 0.03 | 0.03 | 77 | |
| 20260901001753 | 25 | 240 | 0.0 | 0.0 | 0.00 | 0.03 | 0.03 | 77 | |
| 20260901001248 | 25 | 240 | 0.0 | 0.0 | 0.00 | 0.03 | 0.03 | 75 | |
| 20260901000738 | 25 | 240 | 0.0 | 0.0 | 0.00 | 0.03 | 0.03 | 75 | |
| 20260901000233 | 26 | 240 | 0.0 | 0.0 | 0.00 | 0.03 | 0.03 | 75 | |
| 20260831235725 | 26 | 240 | 0.0 | 0.0 | 0.00 | 0.03 | 0.03 | 74 | |
| 20260831235221 | 26 | 240 | 0.0 | 0.0 | 0.00 | 0.03 | 0.03 | 74 | |
| 20260831234721 | 26 | 240 | 0.0 | 0.0 | 0.00 | 0.03 | 0.03 | 73 | |
| 20260831234216 | 26 | 240 | 0.0 | 0.0 | 0.00 | 0.03 | 0.03 | 72 | |
| 20260831233711 | 26 | 240 | 0.0 | 1.6 | 0.00 | 0.03 | 0.03 | 74 | |
| 20260831233207 | 26 | 241 | 0.0 | 1.6 | 0.00 | 0.03 | 0.03 | 76 | |
| 20260831232706 | 26 | 317 | 1.6 | 1.6 | 0.00 | 0.03 | 0.03 | 75 | |
| 20260831232203 | 26 | 317 | 0.0 | 1.6 | 0.00 | 0.03 | 0.03 | 78 | |
| 20260831231659 | 26 | 317 | 0.0 | 1.6 | 0.00 | 0.03 | 0.03 | 79 | |
| 20260831231155 | 26 | 317 | 0.0 | 1.6 | 0.00 | 0.03 | 0.03 | 77 | |
| 20260831230654 | 27 | 317 | 1.6 | 1.6 | 0.00 | 0.03 | 0.03 | 77 | |
| 20260831230150 | 27 | 317 | 0.0 | 1.6 | 0.00 | 0.03 | 0.03 | 74 | |
| 20260831225649 | 28 | 317 | 1.6 | 1.6 | 0.00 | 0.03 | 0.03 | 71 | |
| 20260831225144 | 28 | 318 | 0.0 | 0.0 | 0.00 | 0.03 | 0.03 | 70 | |
| 20260831224639 | 28 | 317 | 0.0 | 0.0 | 0.00 | 0.03 | 0.03 | 71 | |
| 20260831224135 | 28 | 317 | 0.0 | 0.0 | 0.00 | 0.03 | 0.03 | 68 | |
| 20260831223630 | 28 | 317 | 0.0 | 0.0 | 0.00 | 0.03 | 0.03 | 65 | |
| 20260831223126 | 28 | 317 | 0.0 | 1.6 | 0.00 | 0.03 | 0.03 | 67 | |
| 20260831222622 | 29 | 342 | 0.0 | 0.0 | 0.00 | 0.03 | 0.03 | 63 | |
| 20260831222118 | 28 | 342 | 0.0 | 0.0 | 0.00 | 0.03 | 0.03 | 66 | |
| 20260831221613 | 28 | 342 | 1.6 | 1.6 | 0.00 | 0.03 | 0.03 | 69 | |
| 20260831221114 | 28 | 15 | 0.0 | 0.0 | 0.00 | 0.03 | 0.03 | 68 | |
| 20260831220608 | 28 | 15 | 0.0 | 0.0 | 0.00 | 0.03 | 0.03 | 68 | |
| 20260831220104 | 28 | 15 | 0.0 | 0.0 | 0.00 | 0.03 | 0.03 | 66 | |
| 20260831215559 | 29 | 14 | 1.6 | 4.8 | 0.00 | 0.03 | 0.03 | 62 | |
| 20260831215054 | 29 | 37 | 3.2 | 6.4 | 0.00 | 0.03 | 0.03 | 60 | |
| 20260831214547 | 30 | 4 | 4.8 | 4.8 | 0.00 | 0.03 | 0.03 | 60 | |
| 20260831214042 | 30 | 6 | 1.6 | 1.6 | 0.00 | 0.03 | 0.03 | 60 | |
| 20260831213538 | 30 | 6 | 1.6 | 1.6 | 0.00 | 0.03 | 0.03 | 58 | |
| 20260831213028 | 31 | 293 | 3.2 | 4.8 | 0.00 | 0.03 | 0.03 | 55 | |
| 20260831212524 | 31 | 236 | 1.6 | 1.6 | 0.00 | 0.03 | 0.03 | 56 | |
| 20260831212019 | 31 | 18 | 0.0 | 0.0 | 0.00 | 0.03 | 0.03 | 59 | |
| 20260831211513 | 31 | 310 | 1.6 | 4.8 | 0.00 | 0.03 | 0.03 | 58 | |
| 20260831211012 | 31 | 322 | 3.2 | 6.4 | 0.00 | 0.03 | 0.03 | 59 | |
| 20260831210508 | 30 | 357 | 0.0 | 4.8 | 0.00 | 0.03 | 0.03 | 60 | |
| 20260831210004 | 30 | 246 | 4.8 | 6.4 | 0.00 | 0.03 | 0.03 | 61 | |
| 20260831205458 | 30 | 212 | 3.2 | 4.8 | 0.00 | 0.03 | 0.03 | 64 | |
| 20260831204954 | 29 | 204 | 1.6 | 1.6 | 0.00 | 0.03 | 0.03 | 65 | |
| 20260831204449 | 28 | 204 | 0.0 | 0.0 | 0.00 | 0.03 | 0.03 | 68 | |
| 20260831203947 | 28 | 187 | 0.0 | 1.6 | 0.00 | 0.03 | 0.03 | 69 | |
| 20260831203442 | 28 | 220 | 0.0 | 0.0 | 0.00 | 0.03 | 0.03 | 68 | |
| 20260831202940 | 28 | 220 | 0.0 | 0.0 | 0.00 | 0.03 | 0.03 | 70 | |
| 20260831202435 | 27 | 220 | 0.0 | 0.0 | 0.00 | 0.03 | 0.03 | 70 | 1019.7 |
| 20260831201929 | 27 | 220 | 1.6 | 4.8 | 0.00 | 0.03 | 0.03 | 66 | 1019.7 |
| 20260831201428 | 28 | 234 | 1.6 | 1.6 | 0.00 | 0.03 | 0.03 | 69 | 1019.7 |
| 20260831200924 | 28 | 280 | 1.6 | 8.0 | 0.00 | 0.03 | 0.03 | 64 | 1019.7 |
| 20260831200419 | 28 | 112 | 1.6 | 1.6 | 0.00 | 0.03 | 0.03 | 65 | 1019.7 |
| 20260831195914 | 29 | 128 | 0.0 | 4.8 | 0.00 | 0.03 | 0.03 | 62 | 1019.7 |
| 20260831195409 | 30 | 286 | 1.6 | 1.6 | 0.00 | 0.03 | 0.03 | 59 | 1019.7 |
| 20260831194904 | 30 | 31 | 1.6 | 8.0 | 0.00 | 0.03 | 0.03 | 58 | 1019.7 |
| 20260831194400 | 30 | 61 | 0.0 | 1.6 | 0.00 | 0.03 | 0.03 | 58 | 1019.7 |
| 20260831193859 | 30 | 286 | 1.6 | 4.8 | 0.00 | 0.03 | 0.03 | 56 | 1019.7 |
| 20260831193354 | 31 | 342 | 3.2 | 12.9 | 0.00 | 0.03 | 0.03 | 55 | 1019.7 |
| 20260831192849 | 31 | 111 | 4.8 | 4.8 | 0.00 | 0.03 | 0.03 | 53 | 1019.7 |
| 20260831192344 | 30 | 357 | 0.0 | 4.8 | 0.00 | 0.03 | 0.03 | 55 | 1019.8 |
| 20260831191839 | 31 | 284 | 9.7 | 12.9 | 0.00 | 0.03 | 0.03 | 54 | 1019.7 |
| 20260831191335 | 31 | 285 | 6.4 | 12.9 | 0.00 | 0.03 | 0.03 | 54 | 1019.9 |
| 20260831190831 | 31 | 241 | 12.9 | 29.0 | 0.00 | 0.03 | 0.03 | 54 | 1019.9 |
| 20260831190326 | 31 | 186 | 12.9 | 12.9 | 0.00 | 0.03 | 0.03 | 52 | 1020.1 |
| 20260831185825 | 30 | 227 | 8.0 | 17.7 | 0.00 | 0.03 | 0.03 | 54 | 1020.3 |
| 20260831185321 | 30 | 268 | 4.8 | 11.3 | 0.00 | 0.03 | 0.03 | 55 | 1020.2 |
| 20260831184820 | 30 | 238 | 6.4 | 8.0 | 0.00 | 0.03 | 0.03 | 56 | 1020.2 |
| 20260831184316 | 30 | 266 | 6.4 | 12.9 | 0.00 | 0.03 | 0.03 | 58 | 1020.2 |
| 20260831183811 | 30 | 271 | 4.8 | 8.0 | 0.00 | 0.03 | 0.03 | 59 | 1020.3 |
| 20260831183310 | 30 | 119 | 3.2 | 8.0 | 0.00 | 0.03 | 0.03 | 60 | 1020.4 |
| 20260831182809 | 29 | 252 | 6.4 | 17.7 | 0.00 | 0.03 | 0.03 | 58 | 1020.4 |
| 20260831182305 | 29 | 248 | 3.2 | 4.8 | 0.00 | 0.03 | 0.03 | 64 | 1020.4 |
| 20260831181759 | 29 | 227 | 6.4 | 11.3 | 0.00 | 0.03 | 0.03 | 62 | 1020.4 |
| 20260831181254 | 30 | 173 | 4.8 | 6.4 | 0.00 | 0.03 | 0.03 | 60 | 1020.2 |
| 20260831180749 | 30 | 248 | 6.4 | 8.0 | 0.00 | 0.03 | 0.03 | 60 | 1020.3 |
| 20260831180244 | 30 | 254 | 3.2 | 6.4 | 0.00 | 0.03 | 0.03 | 59 | 1020.3 |
| 20260831175743 | 30 | 304 | 6.4 | 17.7 | 0.00 | 0.03 | 0.03 | 58 | 1020.4 |
| 20260831175240 | 30 | 289 | 3.2 | 6.4 | 0.00 | 0.03 | 0.03 | 59 | 1020.4 |
| 20260831174735 | 30 | 2 | 6.4 | 12.9 | 0.00 | 0.03 | 0.03 | 57 | 1020.3 |
| 20260831174231 | 30 | 321 | 3.2 | 4.8 | 0.00 | 0.03 | 0.03 | 59 | 1020.6 |
| 20260831173729 | 29 | 233 | 1.6 | 8.0 | 0.00 | 0.03 | 0.03 | 57 | 1020.3 |
| 20260831173229 | 30 | 268 | 8.0 | 11.3 | 0.00 | 0.03 | 0.03 | 55 | 1020.4 |
| 20260831172725 | 29 | 275 | 4.8 | 8.0 | 0.00 | 0.03 | 0.03 | 55 | 1020.5 |
| 20260831172220 | 29 | 312 | 4.8 | 12.9 | 0.00 | 0.03 | 0.03 | 57 | 1020.4 |
| 20260831171714 | 29 | 260 | 6.4 | 11.3 | 0.00 | 0.03 | 0.03 | 57 | 1020.5 |
| 20260831171212 | 29 | 206 | 4.8 | 11.3 | 0.00 | 0.03 | 0.03 | 56 | 1020.5 |
| 20260831170708 | 30 | 272 | 4.8 | 6.4 | 0.00 | 0.03 | 0.03 | 54 | 1020.5 |
| 20260831170205 | 30 | 301 | 3.2 | 6.4 | 0.00 | 0.03 | 0.03 | 54 | 1020.8 |
| 20260831165700 | 30 | 243 | 4.8 | 8.0 | 0.00 | 0.03 | 0.03 | 52 | 1020.5 |
| 20260831165156 | 30 | 351 | 3.2 | 6.4 | 0.00 | 0.03 | 0.03 | 51 | 1020.7 |
| 20260831164652 | 30 | 359 | 4.8 | 6.4 | 0.00 | 0.03 | 0.03 | 57 | 1020.5 |
| 20260831164148 | 30 | 262 | 11.3 | 12.9 | 0.00 | 0.03 | 0.03 | 58 | 1020.7 |
| 20260831163643 | 30 | 249 | 8.0 | 6.4 | 0.00 | 0.03 | 0.03 | 59 | 1020.5 |
| 20260831163139 | 28 | 298 | 1.6 | 1.6 | 0.00 | 0.03 | 0.03 | 63 | 1020.7 |
| 20260831162638 | 28 | 240 | 1.6 | 11.3 | 0.00 | 0.03 | 0.03 | 59 | 1020.6 |
| 20260831162136 | 29 | 234 | 8.0 | 11.3 | 0.00 | 0.03 | 0.03 | 58 | 1020.7 |
| 20260831161632 | 28 | 53 | 0.0 | 6.4 | 0.00 | 0.03 | 0.03 | 59 | 1020.8 |
| 20260831161129 | 29 | 352 | 1.6 | 17.7 | 0.00 | 0.03 | 0.03 | 60 | 1020.6 |
| 20260831160627 | 28 | 98 | 0.0 | 4.8 | 0.00 | 0.03 | 0.03 | 63 | 1020.6 |
| 20260831160122 | 28 | 331 | 1.6 | 12.9 | 0.00 | 0.03 | 0.03 | 64 | 1020.6 |
| 20260831155617 | 28 | 247 | 4.8 | 8.0 | 0.00 | 0.03 | 0.03 | 63 | 1020.7 |
| 20260831155112 | 28 | 0 | 8.0 | 11.3 | 0.00 | 0.03 | 0.03 | 65 | 1020.8 |
| 20260831154608 | 28 | 201 | 4.8 | 8.0 | 0.00 | 0.03 | 0.03 | 64 | 1020.6 |
| 20260831154108 | 28 | 237 | 4.8 | 11.3 | 0.00 | 0.03 | 0.03 | 67 | 1020.9 |
| 20260831153607 | 27 | 221 | 6.4 | 16.1 | 0.00 | 0.03 | 0.03 | 67 | 1020.6 |
| 20260831153104 | 27 | 211 | 4.8 | 11.3 | 0.00 | 0.03 | 0.03 | 68 | 1020.7 |
| 20260831152559 | 28 | 144 | 3.2 | 4.8 | 0.00 | 0.03 | 0.03 | 66 | 1020.8 |
| 20260831152055 | 28 | 238 | 9.7 | 12.9 | 0.00 | 0.03 | 0.03 | 65 | 1020.8 |
| 20260831151554 | 27 | 205 | 3.2 | 6.4 | 0.00 | 0.03 | 0.03 | 68 | 1020.9 |
| 20260831151049 | 27 | 220 | 6.4 | 16.1 | 0.00 | 0.03 | 0.03 | 70 | 1020.7 |
| 20260831150544 | 27 | 270 | 8.0 | 11.3 | 0.00 | 0.03 | 0.03 | 73 | 1020.7 |
| 20260831150040 | 27 | 227 | 11.3 | 12.9 | 0.00 | 0.03 | 0.03 | 71 | 1020.8 |
| 20260831145534 | 26 | 147 | 8.0 | 11.3 | 0.00 | 0.03 | 0.03 | 77 | 1020.9 |
| 20260831145030 | 26 | 241 | 3.2 | 8.0 | 0.00 | 0.03 | 0.03 | 79 | 1020.8 |
| 20260831144526 | 25 | 218 | 6.4 | 6.4 | 0.00 | 0.03 | 0.03 | 81 | 1021.0 |
| 20260831144021 | 24 | 247 | 1.6 | 8.0 | 0.00 | 0.03 | 0.03 | 84 | 1020.9 |
| 20260831143516 | 24 | 262 | 0.0 | 4.8 | 0.00 | 0.03 | 0.03 | 85 | 1021.1 |
| 20260831143011 | 24 | 247 | 3.2 | 8.0 | 0.00 | 0.03 | 0.03 | 85 | 1021.0 |
| 20260831142508 | 24 | 281 | 4.8 | 4.8 | 0.00 | 0.03 | 0.03 | 86 | 1020.9 |
| 20260831142002 | 23 | 288 | 4.8 | 6.4 | 0.00 | 0.03 | 0.03 | 86 | 1020.9 |
| 20260831141456 | 23 | 258 | 3.2 | 8.0 | 0.00 | 0.03 | 0.03 | 86 | 1020.8 |
| 20260831140951 | 24 | 276 | 3.2 | 6.4 | 0.00 | 0.03 | 0.03 | 85 | 1020.9 |
| 20260831140450 | 23 | 218 | 3.2 | 4.8 | 0.00 | 0.03 | 0.03 | 86 | 1020.7 |
| 20260831135949 | 23 | 252 | 4.8 | 6.4 | 0.00 | 0.03 | 0.03 | 86 | 1020.8 |
| 20260831135448 | 23 | 259 | 1.6 | 1.6 | 0.00 | 0.03 | 0.03 | 87 | 1020.6 |
| 20260831134943 | 23 | 234 | 1.6 | 1.6 | 0.00 | 0.03 | 0.03 | 88 | 1020.7 |
| 20260831134435 | 23 | 237 | 1.6 | 4.8 | 0.00 | 0.03 | 0.03 | 88 | 1020.7 |
| 20260831133934 | 22 | 181 | 4.8 | 4.8 | 0.00 | 0.03 | 0.03 | 90 | 1020.8 |
| 20260831133434 | 22 | 143 | 6.4 | 6.4 | 0.00 | 0.03 | 0.03 | 90 | 1020.9 |
| 20260831132930 | 22 | 144 | 1.6 | 1.6 | 0.00 | 0.03 | 0.03 | 92 | 1021.1 |
| 20260831132425 | 22 | 136 | 0.0 | 1.6 | 0.00 | 0.03 | 0.03 | 93 | 1021.0 |
| 20260831131924 | 21 | 135 | 0.0 | 4.8 | 0.00 | 0.03 | 0.03 | 94 | 1020.9 |
| 20260831131420 | 21 | 136 | 0.0 | 0.0 | 0.00 | 0.03 | 0.03 | 94 | 1020.8 |
| 20260831130916 | 21 | 137 | 0.0 | 0.0 | 0.00 | 0.03 | 0.03 | 94 | 1020.7 |
| 20260831130411 | 21 | 130 | 1.6 | 6.4 | 0.00 | 0.03 | 0.03 | 94 | 1020.8 |
| 20260831125910 | 21 | 112 | 3.2 | 4.8 | 0.00 | 0.03 | 0.03 | 94 | 1020.8 |
| 20260831125405 | 21 | 111 | 0.0 | 4.8 | 0.00 | 0.03 | 0.03 | 94 | 1020.9 |
| 20260831124901 | 21 | 108 | 3.2 | 1.6 | 0.00 | 0.03 | 0.03 | 94 | 1020.8 |
| 20260831124356 | 21 | 107 | 0.0 | 0.0 | 0.00 | 0.03 | 0.03 | 94 | 1020.9 |
| 20260831123851 | 21 | 107 | 0.0 | 0.0 | 0.00 | 0.03 | 0.03 | 94 | 1020.8 |
| 20260831123350 | 21 | 108 | 1.6 | 4.8 | 0.00 | 0.03 | 0.03 | 94 | 1020.7 |
| 20260831122845 | 21 | 102 | 3.2 | 4.8 | 0.00 | 0.03 | 0.03 | 94 | 1020.7 |
| 20260831122340 | 21 | 101 | 0.0 | 4.8 | 0.00 | 0.03 | 0.03 | 94 | 1020.8 |
| 20260831121840 | 21 | 60 | 1.6 | 1.6 | 0.00 | 0.03 | 0.03 | 94 | 1020.9 |
| 20260831121337 | 21 | 73 | 1.6 | 0.0 | 0.00 | 0.03 | 0.03 | 94 | 1020.8 |
| 20260831120832 | 21 | 73 | 1.6 | 1.6 | 0.00 | 0.03 | 0.03 | 94 | 1020.9 |
| 20260831120326 | 21 | 28 | 0.0 | 1.6 | 0.00 | 0.03 | 0.03 | 94 | 1020.9 |
| 20260831115821 | 20 | 268 | 3.2 | 6.4 | 0.00 | 0.03 | 0.03 | 95 | 1020.9 |
| 20260831115318 | 20 | 221 | 4.8 | 4.8 | 0.13 | 0.03 | 0.03 | 95 | 1020.9 |
| 20260831114817 | 20 | 99 | 0.0 | 6.4 | 0.13 | 0.03 | 0.03 | 95 | 1021.0 |
| 20260831114315 | 20 | 121 | 1.6 | 4.8 | 0.00 | 0.00 | 0.00 | 95 | 1020.9 |
| 20260831113811 | 20 | 16 | 1.6 | 1.6 | 0.00 | 0.00 | 0.00 | 95 | 1021.1 |
| 20260831113306 | 20 | 19 | 0.0 | 0.0 | 0.00 | 0.00 | 0.00 | 95 | 1021.0 |
| 20260831112800 | 20 | 20 | 0.0 | 0.0 | 0.00 | 0.00 | 0.00 | 95 | 1021.0 |
| 20260831112255 | 20 | 20 | 0.0 | 0.0 | 0.00 | 0.00 | 0.00 | 95 | 1020.9 |
| 20260831111750 | 20 | 19 | 0.0 | 1.6 | 0.00 | 0.00 | 0.00 | 95 | 1020.7 |
| 20260831111247 | 20 | 20 | 0.0 | 1.6 | 0.00 | 0.00 | 0.00 | 94 | 1020.5 |
| 20260831110743 | 20 | 27 | 0.0 | 0.0 | 0.00 | 0.00 | 0.00 | 94 | 1020.6 |
| 20260831110237 | 20 | 27 | 0.0 | 0.0 | 0.00 | 0.00 | 0.00 | 94 | 1020.7 |
| 20260831105736 | 20 | 27 | 0.0 | 0.0 | 0.00 | 0.00 | 0.00 | 93 | 1020.4 |
| 20260831105232 | 20 | 27 | 0.0 | 0.0 | 0.00 | 0.00 | 0.00 | 93 | 1020.4 |
| 20260831104726 | 20 | 27 | 0.0 | 0.0 | 0.00 | 0.00 | 0.00 | 93 | 1020.3 |
| 20260831104224 | 20 | 27 | 0.0 | 0.0 | 0.00 | 0.00 | 0.00 | 93 | 1020.3 |
| 20260831103723 | 20 | 27 | 0.0 | 0.0 | 0.00 | 0.00 | 0.00 | 93 | 1020.4 |
| 20260831103219 | 20 | 322 | 0.0 | 1.6 | 0.00 | 0.00 | 0.00 | 93 | 1020.3 |
| 20260831102718 | 20 | 348 | 0.0 | 0.0 | 0.00 | 0.00 | 0.00 | 93 | 1020.3 |
| 20260831102214 | 20 | 352 | 0.0 | 1.6 | 0.00 | 0.00 | 0.00 | 93 | 1020.2 |
| 20260831101709 | 20 | 66 | 1.6 | 1.6 | 0.00 | 0.00 | 0.00 | 93 | 1020.3 |
| 20260831101204 | 20 | 118 | 0.0 | 1.6 | 0.00 | 0.00 | 0.00 | 93 | 1020.2 |
| 20260831100700 | 20 | 118 | 1.6 | 1.6 | 0.00 | 0.00 | 0.00 | 93 | 1020.3 |
| 20260831100156 | 20 | 121 | 0.0 | 1.6 | 0.00 | 0.00 | 0.00 | 93 | 1020.1 |
| 20260831095654 | 20 | 116 | 4.8 | 6.4 | 0.00 | 0.00 | 0.00 | 93 | 1020.1 |
| 20260831095149 | 20 | 120 | 0.0 | 1.6 | 0.00 | 0.00 | 0.00 | 93 | 1020.1 |
| 20260831094644 | 20 | 98 | 0.0 | 4.8 | 0.00 | 0.00 | 0.00 | 94 | 1019.9 |
| 20260831094140 | 20 | 137 | 1.6 | 1.6 | 0.00 | 0.00 | 0.00 | 93 | 1019.9 |
| 20260831093636 | 20 | 136 | 0.0 | 1.6 | 0.00 | 0.00 | 0.00 | 93 | 1020.1 |
| 20260831093132 | 20 | 131 | 0.0 | 1.6 | 0.00 | 0.00 | 0.00 | 94 | 1020.2 |
| 20260831092628 | 20 | 112 | 0.0 | 1.6 | 0.00 | 0.00 | 0.00 | 94 | 1020.3 |
| 20260831092123 | 20 | 213 | 0.0 | 1.6 | 0.00 | 0.00 | 0.00 | 94 | 1020.2 |
| 20260831091623 | 20 | 213 | 0.0 | 1.6 | 0.00 | 0.00 | 0.00 | 94 | 1020.2 |
| 20260831091118 | 20 | 212 | 0.0 | 0.0 | 0.00 | 0.00 | 0.00 | 94 | 1020.2 |
| 20260831090614 | 20 | 208 | 0.0 | 1.6 | 0.00 | 0.00 | 0.00 | 94 | 1020.3 |
| 20260831090110 | 20 | 208 | 3.2 | 4.8 | 0.00 | 0.00 | 0.00 | 94 | 1020.3 |
| 20260831085605 | 20 | 149 | 1.6 | 1.6 | 0.00 | 0.00 | 0.00 | 94 | 1020.1 |
| 20260831085100 | 20 | 149 | 3.2 | 4.8 | 0.00 | 0.00 | 0.00 | 94 | 1020.3 |
| 20260831084556 | 20 | 142 | 0.0 | 1.6 | 0.00 | 0.00 | 0.00 | 94 | 1020.1 |
| 20260831084052 | 20 | 125 | 0.0 | 0.0 | 0.00 | 0.00 | 0.00 | 94 | 1020.2 |
| 20260831083547 | 20 | 125 | 0.0 | 0.0 | 0.00 | 0.00 | 0.00 | 94 | 1020.2 |
| 20260831083042 | 20 | 125 | 0.0 | 1.6 | 0.00 | 0.00 | 0.00 | 93 | 1019.9 |
| 20260831082535 | 20 | 126 | 0.0 | 1.6 | 0.00 | 0.00 | 0.00 | 93 | 1019.9 |
| 20260831082031 | 20 | 119 | 1.6 | 6.4 | 0.00 | 0.00 | 0.00 | 93 | 1020.2 |
| 20260831081527 | 20 | 107 | 3.2 | 4.8 | 0.00 | 0.00 | 0.00 | 94 | 1020.2 |
| 20260831081022 | 20 | 129 | 3.2 | 1.6 | 0.00 | 0.00 | 0.00 | 94 | 1020.2 |
| 20260831080516 | 20 | 128 | 0.0 | 1.6 | 0.00 | 0.00 | 0.00 | 95 | 1020.4 |
| 20260831080012 | 20 | 128 | 4.8 | 4.8 | 0.00 | 0.00 | 0.00 | 95 | 1020.2 |